TimeEDT,TemperatureF,Dew PointF,Humidity,Sea Level PressureIn,VisibilityMPH,Wind Direction,Wind SpeedMPH,Gust SpeedMPH,PrecipitationIn,Events,Conditions,WindDirDegrees,DateUTC
12:15 AM,77.0,77.0,100,29.80,10.0,SSE,11.5,-,N/A,,Overcast,150,2012-10-02 04:15:00
12:35 AM,77.0,77.0,100,29.79,10.0,SSE,10.4,16.1,N/A,,Overcast,150,2012-10-02 04:35:00
12:55 AM,77.0,77.0,100,29.79,10.0,SSE,11.5,-,N/A,,Overcast,160,2012-10-02 04:55:00
1:15 AM,77.0,77.0,100,29.79,10.0,SSE,10.4,-,N/A,,Overcast,150,2012-10-02 05:15:00
1:35 AM,77.0,77.0,100,29.79,10.0,SSE,8.1,-,N/A,,Overcast,150,2012-10-02 05:35:00
1:55 AM,77.0,77.0,100,29.78,10.0,SSE,8.1,-,N/A,,Overcast,150,2012-10-02 05:55:00
2:35 AM,77.0,77.0,100,29.78,10.0,SSE,9.2,-,N/A,,Overcast,150,2012-10-02 06:35:00
2:55 AM,77.0,77.0,100,29.79,10.0,SSE,8.1,-,N/A,,Overcast,160,2012-10-02 06:55:00
3:15 AM,77.0,77.0,100,29.79,10.0,SSE,8.1,-,N/A,,Overcast,160,2012-10-02 07:15:00
3:35 AM,77.0,77.0,100,29.79,10.0,SSE,8.1,-,N/A,,Overcast,150,2012-10-02 07:35:00
3:55 AM,77.0,77.0,100,29.78,10.0,SSE,6.9,-,N/A,,Overcast,150,2012-10-02 07:55:00
4:15 AM,77.0,77.0,100,29.79,10.0,SSE,8.1,-,N/A,,Mostly Cloudy,160,2012-10-02 08:15:00
4:35 AM,75.2,75.2,100,29.79,10.0,South,5.8,-,N/A,Thunderstorm,Mostly Cloudy,170,2012-10-02 08:35:00
4:55 AM,75.2,75.2,100,29.79,10.0,South,4.6,-,N/A,,Overcast,190,2012-10-02 08:55:00
5:15 AM,75.2,75.2,100,29.80,10.0,South,4.6,-,N/A,,Overcast,190,2012-10-02 09:15:00
5:35 AM,75.2,75.2,100,29.80,10.0,South,4.6,-,N/A,,Overcast,190,2012-10-02 09:35:00
5:55 AM,73.4,73.4,100,29.80,10.0,South,6.9,-,N/A,,Mostly Cloudy,190,2012-10-02 09:55:00
6:35 AM,73.4,73.4,100,29.81,10.0,SSE,5.8,-,N/A,,Scattered Clouds,160,2012-10-02 10:35:00
6:55 AM,73.4,73.4,100,29.82,10.0,South,5.8,-,N/A,,Mostly Cloudy,170,2012-10-02 10:55:00
7:15 AM,73.4,73.4,100,29.82,10.0,SSE,6.9,-,N/A,,Overcast,160,2012-10-02 11:15:00
7:35 AM,73.4,73.4,100,29.82,10.0,SSE,6.9,-,N/A,,Overcast,160,2012-10-02 11:35:00
7:55 AM,73.4,73.4,100,29.83,10.0,South,10.4,-,N/A,,Overcast,170,2012-10-02 11:55:00
8:15 AM,75.2,75.2,100,29.83,10.0,South,9.2,-,N/A,,Overcast,170,2012-10-02 12:15:00
8:35 AM,77.0,77.0,100,29.84,10.0,South,10.4,-,N/A,,Overcast,180,2012-10-02 12:35:00
8:55 AM,77.0,77.0,100,29.85,10.0,South,9.2,-,N/A,,Overcast,190,2012-10-02 12:55:00
9:15 AM,75.2,75.2,100,29.86,10.0,SW,8.1,-,N/A,,Overcast,220,2012-10-02 13:15:00
9:35 AM,75.2,75.2,100,29.88,10.0,SSW,9.2,-,N/A,,Overcast,210,2012-10-02 13:35:00
9:55 AM,75.2,75.2,100,29.88,5.0,SW,10.4,-,N/A,Rain,Rain,220,2012-10-02 13:55:00
10:15 AM,73.4,73.4,100,29.89,10.0,SSW,6.9,-,N/A,,Overcast,210,2012-10-02 14:15:00
10:35 AM,75.2,75.2,100,29.89,10.0,South,4.6,-,N/A,,Overcast,190,2012-10-02 14:35:00
10:55 AM,77.0,75.2,94,29.89,10.0,South,6.9,-,N/A,,Overcast,190,2012-10-02 14:55:00
11:15 AM,77.0,71.6,83,29.90,10.0,SSW,9.2,-,N/A,,Overcast,210,2012-10-02 15:15:00
11:35 AM,78.8,71.6,78,29.88,10.0,SW,8.1,-,N/A,,Overcast,220,2012-10-02 15:35:00
11:55 AM,80.6,69.8,70,29.88,10.0,SW,8.1,-,N/A,,Overcast,230,2012-10-02 15:55:00
12:15 PM,80.6,68.0,65,29.90,10.0,SW,11.5,-,N/A,,Overcast,230,2012-10-02 16:15:00
12:35 PM,82.4,68.0,62,29.90,10.0,SSW,9.2,-,N/A,,Overcast,200,2012-10-02 16:35:00
12:55 PM,82.4,68.0,62,29.89,10.0,SW,11.5,16.1,N/A,,Mostly Cloudy,220,2012-10-02 16:55:00
1:15 PM,82.4,68.0,62,29.89,10.0,SSW,8.1,16.1,N/A,,Mostly Cloudy,210,2012-10-02 17:15:00
1:35 PM,80.6,66.2,61,29.88,10.0,SSW,11.5,-,N/A,,Mostly Cloudy,200,2012-10-02 17:35:00
1:55 PM,82.4,68.0,62,29.88,10.0,SW,11.5,-,N/A,,Scattered Clouds,230,2012-10-02 17:55:00
2:15 PM,82.4,66.2,58,29.88,10.0,SSW,11.5,18.4,N/A,,Mostly Cloudy,200,2012-10-02 18:15:00
2:35 PM,82.4,68.0,62,29.88,-9999.0,SW,8.1,-,N/A,,Unknown,220,2012-10-02 18:35:00
2:55 PM,82.4,68.0,62,29.88,10.0,SW,9.2,-,N/A,,Scattered Clouds,230,2012-10-02 18:55:00
3:15 PM,80.6,66.2,61,29.88,10.0,SW,8.1,-,N/A,,Mostly Cloudy,220,2012-10-02 19:15:00
3:35 PM,82.4,68.0,62,29.88,10.0,SW,9.2,-,N/A,,Scattered Clouds,230,2012-10-02 19:35:00
3:55 PM,84.2,66.2,55,29.89,10.0,SW,12.7,18.4,N/A,,Scattered Clouds,220,2012-10-02 19:55:00
4:15 PM,82.4,68.0,62,29.90,10.0,South,8.1,-,N/A,,Scattered Clouds,190,2012-10-02 20:15:00
4:35 PM,82.4,68.0,62,29.90,10.0,South,6.9,-,N/A,,Mostly Cloudy,170,2012-10-02 20:35:00
4:55 PM,80.6,68.0,65,29.90,10.0,SSW,5.8,-,N/A,,Mostly Cloudy,200,2012-10-02 20:55:00
5:15 PM,82.4,68.0,62,29.90,10.0,SW,6.9,-,N/A,,Scattered Clouds,230,2012-10-02 21:15:00
5:35 PM,82.4,68.0,62,29.90,10.0,SSW,6.9,-,N/A,,Clear,210,2012-10-02 21:35:00
5:55 PM,82.4,68.0,62,29.91,10.0,SW,8.1,-,N/A,,Clear,230,2012-10-02 21:55:00
6:15 PM,82.4,68.0,62,29.92,10.0,SW,4.6,-,N/A,,Clear,230,2012-10-02 22:15:00
6:35 PM,80.6,68.0,65,29.92,10.0,SW,5.8,-,N/A,,Clear,220,2012-10-02 22:35:00
6:55 PM,78.8,68.0,69,29.93,10.0,SW,3.5,-,N/A,,Clear,220,2012-10-02 22:55:00
7:15 PM,77.0,69.8,78,29.93,10.0,Calm,Calm,-,N/A,,Clear,0,2012-10-02 23:15:00
7:35 PM,73.4,69.8,88,29.94,10.0,Calm,Calm,-,N/A,,Scattered Clouds,0,2012-10-02 23:35:00
7:55 PM,73.4,69.8,88,29.95,10.0,Calm,Calm,-,N/A,,Mostly Cloudy,0,2012-10-02 23:55:00
8:15 PM,75.2,69.8,83,29.96,10.0,Calm,Calm,-,N/A,,Mostly Cloudy,0,2012-10-03 00:15:00
8:35 PM,73.4,69.8,88,29.97,10.0,Calm,Calm,-,N/A,,Mostly Cloudy,0,2012-10-03 00:35:00
8:55 PM,73.4,69.8,88,29.97,10.0,Calm,Calm,-,N/A,,Scattered Clouds,0,2012-10-03 00:55:00
9:15 PM,73.4,69.8,88,29.98,10.0,Calm,Calm,-,N/A,,Scattered Clouds,0,2012-10-03 01:15:00
9:35 PM,73.4,69.8,88,29.98,10.0,Calm,Calm,-,N/A,,Scattered Clouds,0,2012-10-03 01:35:00
9:55 PM,73.4,69.8,88,29.99,10.0,SSE,3.5,-,N/A,,Mostly Cloudy,150,2012-10-03 01:55:00
10:15 PM,73.4,69.8,88,30.00,10.0,SSE,3.5,-,N/A,,Overcast,160,2012-10-03 02:15:00
10:35 PM,73.4,69.8,88,30.00,10.0,West,5.8,-,N/A,,Overcast,270,2012-10-03 02:35:00
10:55 PM,71.6,69.8,94,30.01,10.0,Calm,Calm,-,N/A,,Mostly Cloudy,0,2012-10-03 02:55:00
11:15 PM,73.4,69.8,88,30.02,10.0,West,4.6,-,N/A,,Mostly Cloudy,260,2012-10-03 03:15:00
11:35 PM,73.4,68.0,83,30.02,10.0,Calm,Calm,-,N/A,,Mostly Cloudy,0,2012-10-03 03:35:00
11:55 PM,73.4,68.0,83,30.02,10.0,Calm,Calm,-,N/A,,Mostly Cloudy,0,2012-10-03 03:55:00